Tracking 29487 objects as of 11-Sep-2024
HD Live streaming from Space Station
objects crossing your sky now

STARLINK-1224

Track STARLINK-1224 now!
10-day predictions
STARLINK-1224 is classified as:


NORAD ID: 45186
Int'l Code: 2020-012J
Perigee: 553.2 km
Apogee: 555.7 km
Inclination: 53.1 °
Period: 95.6 minutes
Semi major axis: 6925 km
RCS: Unknown
Launch date: February 17, 2020
Source: United States (US)
Launch site: AIR FORCE EASTERN TEST RANGE (AFETR)
Your satellite tracking list
Your tracking list is empty




NASA's NSSDC Master Catalog

Two Line Element Set (TLE):
1 45186U 20012J   24255.47050177  .00036160  00000-0  24357-2 0  9997
2 45186  53.0549 329.7153 0001797  91.0641 269.0554 15.06374292252163
Source of the keplerian elements: AFSPC